Theta_e
334 333 322 321 323 322 323 323 324 324 326 324 328 329 332 334 337 344 337 337 335 335 332 331 327 331 332 332 330 326 323 324 321 318 314 311 310 310 310 310 309 308 308 310 312 316 316 313 311
333 331 319 319 323 325 323 323 324 326 326 327 327 327 330 336 338 337 339 337 335 334 333 331 332 333 334 331 330 327 324 323 319 315 311 311 311 310 310 309 308 309 309 309 316 315 315 311 311
327 325 320 325 322 322 323 323 324 325 324 325 326 327 330 336 336 338 338 337 335 334 334 333 333 334 333 331 330 327 323 320 316 312 311 312 311 310 309 308 309 308 308 313 315 315 315 315 314
330 330 324 324 325 320 322 322 324 325 324 324 326 329 332 334 334 338 337 336 335 334 333 332 334 333 331 330 330 326 321 317 314 311 312 312 310 309 308 309 308 307 307 309 311 317 312 310 310
328 330 328 323 321 318 318 319 322 325 325 325 324 327 332 333 340 336 336 336 334 333 333 333 333 331 330 330 328 322 319 315 312 312 312 312 310 309 309 308 307 307 309 308 310 311 313 315 316
330 328 337 330 323 317 318 318 319 323 324 323 325 328 333 335 336 336 337 337 334 332 333 332 332 331 330 329 325 321 317 314 312 312 312 311 310 309 308 308 307 309 308 309 312 315 317 316 316
331 332 333 328 321 317 317 317 320 324 323 321 323 328 334 334 335 337 337 336 333 332 332 332 331 330 330 328 323 319 315 312 312 312 312 310 310 309 307 307 308 309 309 314 315 317 317 317 316
323 328 327 322 323 318 317 317 317 319 320 324 324 329 334 334 334 338 336 333 331 331 330 330 330 329 329 327 321 317 313 313 313 313 311 310 309 308 308 308 310 308 312 315 316 317 316 316 314
321 328 332 324 316 316 316 318 316 320 326 328 327 328 334 333 334 333 332 331 331 330 329 328 327 327 326 323 318 315 313 313 313 313 312 310 308 308 308 310 309 310 314 315 316 315 315 317 317
325 330 330 320 315 315 315 316 316 318 324 328 326 329 332 334 334 334 332 331 330 329 329 328 327 325 322 319 316 315 314 313 313 312 311 309 308 309 310 312 311 313 314 316 316 315 315 317 317
321 330 320 314 314 313 315 315 315 318 320 317 322 324 332 333 333 334 333 331 329 329 328 329 325 323 320 319 316 315 314 313 312 311 309 309 309 311 313 314 314 316 316 315 316 316 315 315 317
319 321 317 316 314 313 314 315 315 315 315 315 318 322 328 331 332 331 330 331 330 330 328 328 324 322 320 318 316 315 314 313 311 310 309 309 311 312 313 312 315 317 318 315 316 316 315 313 314
319 316 318 316 313 313 314 315 315 314 315 316 317 318 321 326 328 329 329 329 330 328 328 327 324 321 319 317 316 315 313 312 311 309 309 309 311 311 312 312 313 315 318 315 315 315 315 313 315
316 316 316 315 315 313 314 313 315 313 314 315 317 317 316 318 321 320 323 326 327 327 328 326 324 321 318 317 315 314 312 311 310 309 309 310 310 311 311 312 313 313 315 315 315 315 315 315 315
317 317 316 316 314 314 313 315 315 312 314 315 315 315 313 313 314 315 315 316 323 327 326 327 324 321 318 316 315 313 312 310 309 310 310 310 311 311 312 312 312 312 314 314 315 315 316 316 316
318 318 321 317 316 312 315 323 314 312 314 315 315 314 312 311 312 314 314 314 317 324 325 325 322 320 317 315 314 313 311 310 310 312 313 311 311 312 312 311 311 312 312 313 314 314 315 315 316
318 322 319 319 317 315 314 320 314 312 314 315 315 314 312 311 311 311 313 315 316 320 322 322 320 319 316 314 313 312 311 310 311 310 310 311 311 311 311 311 311 311 311 311 312 314 315 314 315
323 322 320 322 319 318 318 317 313 312 314 315 315 313 312 311 309 311 314 315 317 318 319 319 319 317 315 313 312 312 311 311 310 309 310 310 310 310 310 310 310 311 310 311 311 312 313 312 314
319 322 322 320 319 319 320 320 319 313 313 315 314 313 312 310 309 309 313 314 315 316 317 317 316 316 313 313 315 313 314 312 309 309 310 309 309 309 310 310 310 310 310 310 310 311 312 311 311
318 319 320 320 315 315 318 319 318 315 313 315 315 313 312 309 309 308 310 312 314 314 315 316 314 313 312 312 312 312 311 309 308 309 309 309 309 308 309 308 309 309 309 309 310 310 311 311 311
317 318 319 320 318 315 315 317 317 317 313 313 314 314 311 310 309 308 309 310 312 312 313 313 312 311 311 311 310 310 308 308 308 308 308 308 308 308 308 308 308 309 309 309 309 309 309 310 310
318 315 315 318 319 322 317 326 324 318 315 313 312 312 311 310 309 308 308 308 310 311 311 311 311 310 310 310 311 310 311 308 307 307 307 307 307 307 307 307 307 308 308 308 308 309 309 309 309
316 315 316 317 319 319 318 320 320 319 318 314 312 312 311 310 308 306 306 308 308 309 310 309 309 309 308 308 308 307 307 307 307 306 306 306 306 306 306 306 306 306 306 307 307 307 307 306 306
314 315 315 316 317 323 320 319 321 319 318 317 314 312 311 310 307 305 305 307 307 307 308 307 307 307 306 306 306 306 306 306 306 306 305 305 305 304 304 304 304 305 305 304 304 303 302 300 299
314 314 320 321 321 319 316 320 320 319 316 316 316 312 311 309 306 303 303 306 306 305 306 306 306 305 305 306 306 305 305 305 304 304 304 304 303 303 302 302 302 302 301 299 297 295 293 292 291
314 314 318 320 321 319 315 318 319 314 309 311 309 313 310 307 305 302 301 303 304 304 305 305 305 304 304 305 305 304 304 304 303 303 302 302 302 301 299 297 294 292 291 291 291 291 291 290 290
314 315 314 316 316 317 317 316 314 309 307 308 309 311 309 306 303 301 300 302 302 303 303 304 304 304 304 304 304 303 302 302 302 301 301 301 298 293 291 291 291 290 290 290 290 290 290 290 289
314 314 314 316 319 319 317 317 318 314 311 308 308 309 307 304 301 298 298 301 303 302 303 303 303 303 303 304 302 301 300 300 301 300 297 292 291 290 290 290 290 290 290 290 289 289 289 289 289
313 315 314 315 315 316 317 317 313 313 313 309 308 306 305 301 299 296 299 301 302 302 300 301 302 302 302 300 299 299 299 298 295 292 291 290 290 289 289 289 289 289 289 289 289 289 288 288 287
314 314 315 317 316 316 316 317 311 310 308 309 307 304 303 301 298 297 300 301 300 300 299 299 301 300 298 298 298 297 294 292 290 290 290 289 289 289 289 289 289 288 288 288 288 288 287 287 286
Wind_Speed
13 2 7 5 4 4 3 6 2 7 6 4 5 5 13 15 8 5 11 6 11 12 11 10 8 8 6 3 3 8 8 7 8 10 12 13 15 16 17 18 18 19 19 18 17 15 14 15 14
6 3 5 2 3 6 6 6 8 6 8 11 9 6 6 7 12 13 5 11 14 11 10 8 9 8 6 1 5 7 8 8 9 11 13 13 14 16 18 19 19 19 18 17 15 13 14 15 15
6 8 4 2 3 4 5 4 8 8 7 5 5 9 6 7 7 6 9 14 13 11 9 7 7 7 2 3 8 9 8 8 10 12 14 16 17 18 18 19 19 17 15 13 13 14 14 15 15
3 5 5 1 2 3 5 6 4 7 5 2 10 9 9 6 3 8 14 14 14 12 10 10 7 4 2 5 10 10 7 8 11 12 15 16 17 18 19 19 18 16 13 12 13 15 14 16 17
5 4 3 1 7 1 3 2 2 5 5 7 2 8 8 7 11 15 14 13 9 12 11 9 6 4 3 8 12 7 8 9 11 13 14 16 17 18 18 17 14 13 12 12 12 15 16 17 18
3 1 4 3 9 3 4 5 0 3 4 6 10 10 7 11 14 18 13 11 9 11 10 8 6 5 5 9 9 7 8 9 11 13 15 16 17 17 17 16 14 12 13 13 14 15 17 18 20
3 3 4 4 5 4 4 6 2 2 8 7 2 5 7 12 16 15 12 12 10 10 9 7 6 6 8 10 7 7 8 10 11 13 16 17 18 18 16 14 12 11 12 13 15 17 18 19 21
2 2 6 1 7 7 5 3 4 9 7 6 4 5 9 14 17 14 14 11 10 9 6 5 5 7 9 7 6 6 7 9 12 14 16 17 18 17 15 13 12 11 11 13 15 16 19 18 22
1 3 6 7 5 4 6 1 7 6 8 9 7 8 12 14 15 13 12 10 8 6 5 3 2 5 5 4 5 6 8 9 12 16 17 18 16 14 13 12 12 11 11 13 15 17 19 21 21
5 4 6 7 3 2 5 6 3 3 8 12 12 12 15 14 13 12 10 9 7 5 4 3 3 3 3 4 4 6 8 11 13 14 16 16 14 13 13 13 11 11 11 13 15 17 21 20 19
2 3 9 4 2 2 4 9 5 5 7 6 5 5 11 15 16 14 13 10 7 6 5 3 2 2 2 4 4 6 8 10 12 14 15 14 13 12 11 11 11 11 12 12 13 15 18 19 17
3 1 11 7 3 2 5 7 4 10 5 3 3 5 6 10 13 13 11 10 9 5 5 3 3 2 2 3 5 7 8 10 11 13 14 13 13 12 11 7 6 10 12 13 13 15 16 16 15
7 3 5 8 12 9 12 11 7 8 5 4 4 5 4 5 5 8 10 10 8 7 7 5 4 3 1 2 5 6 8 9 10 11 12 12 11 11 8 11 9 9 12 13 13 13 15 16 16
4 8 5 4 6 4 4 6 4 4 3 3 4 5 4 3 4 3 6 8 11 10 10 9 6 4 2 2 4 6 7 9 9 9 11 12 11 12 13 13 12 10 10 12 12 13 13 15 15
4 7 4 2 2 2 8 3 4 6 5 3 4 3 3 2 4 6 5 7 14 15 13 12 8 6 3 3 4 6 7 7 7 9 10 10 12 13 13 13 14 14 13 11 12 12 12 12 12
3 2 5 7 2 0 4 12 8 8 9 5 4 3 2 2 0 2 5 8 11 14 14 13 9 7 4 3 4 5 5 5 7 7 7 8 10 11 11 11 13 15 15 14 11 13 12 13 11
2 3 7 5 9 3 7 6 7 7 8 8 7 5 3 2 2 1 4 6 9 12 13 11 9 7 5 3 3 3 3 5 4 3 7 9 10 10 11 11 12 14 15 17 17 15 16 14 12
6 3 7 10 10 11 12 12 5 6 10 12 10 8 7 5 2 3 6 8 9 11 11 10 9 8 6 3 2 2 4 3 1 5 9 9 10 11 11 11 12 13 16 17 16 16 16 18 12
4 8 7 10 3 9 18 17 16 13 13 15 14 12 10 9 6 4 6 8 9 9 10 10 9 9 5 2 3 4 3 4 3 6 8 7 8 8 9 10 10 11 12 13 15 15 15 19 19
3 4 6 3 4 3 10 19 18 15 18 18 18 17 14 11 10 8 7 9 10 11 11 11 10 9 8 5 8 5 4 3 4 7 6 6 6 7 7 8 9 10 11 13 13 15 13 15 19
6 6 5 6 9 3 5 12 19 16 20 18 17 16 16 16 15 12 10 10 11 12 12 11 10 8 8 6 6 5 4 3 4 3 3 3 5 6 7 8 8 9 10 11 12 14 14 16 15
8 3 7 6 7 4 11 6 14 22 19 20 22 22 22 21 17 15 14 12 13 13 12 11 10 9 9 10 8 6 4 5 5 4 2 3 4 5 5 6 6 7 8 8 11 12 13 14 15
6 3 4 6 8 8 8 6 6 10 20 20 27 28 26 24 21 18 16 15 14 13 14 12 11 10 10 9 9 8 7 7 5 4 2 1 1 3 3 4 4 5 6 8 10 10 12 14 14
3 2 2 4 6 6 15 9 7 8 19 19 26 30 28 25 22 19 18 17 15 13 13 13 12 10 10 10 9 9 9 8 7 6 4 3 2 3 4 5 5 5 7 8 9 10 12 14 14
9 6 2 4 5 6 2 11 15 8 10 13 19 28 27 25 23 21 19 18 16 16 14 14 13 11 11 10 9 9 9 9 8 7 6 4 4 5 7 8 8 8 10 11 12 13 14 14 15
18 15 5 5 3 6 3 8 5 3 5 3 5 24 26 24 21 19 18 17 17 17 16 15 14 13 11 10 9 9 9 10 9 9 8 8 9 10 10 10 10 10 11 11 11 11 13 14 16
13 18 16 13 7 5 9 12 10 5 2 5 7 20 25 24 21 19 18 21 18 17 17 17 16 14 13 11 11 11 11 11 12 13 13 12 11 11 10 10 9 9 9 10 11 12 14 14 15
9 9 12 8 4 7 8 12 10 7 10 9 13 20 23 23 22 20 21 21 20 18 18 18 17 15 14 13 13 15 15 15 14 13 13 12 11 10 9 8 8 8 9 10 11 12 13 12 14
9 11 12 9 13 4 5 4 3 5 2 13 16 20 23 24 23 22 23 22 21 20 20 20 18 17 16 17 18 18 17 15 15 13 13 12 11 9 8 7 7 7 8 9 9 9 10 10 13
13 22 21 10 7 13 12 19 6 3 2 5 13 18 21 22 22 22 24 25 23 22 22 21 20 19 19 20 19 18 17 16 14 14 13 11 10 8 7 7 6 6 6 6 6 7 9 10 13
Wind_Direction
204 312 3 13 243 234 164 139 43 147 145 82 48 14 83 43 17 57 134 129 144 144 158 142 123 106 117 112 343 358 0 2 359 356 348 346 348 345 340 339 337 334 332 330 329 336 336 335 333
207 128 25 36 267 214 140 119 171 96 98 111 95 110 77 74 75 107 126 125 138 144 136 138 117 122 150 45 307 340 351 354 354 353 349 345 347 345 343 341 338 337 334 336 343 351 351 352 353
113 139 59 39 286 274 111 139 101 112 114 114 107 59 67 90 86 103 125 132 140 140 150 146 143 151 148 303 308 326 339 350 351 352 347 348 350 348 344 340 340 343 346 358 1 2 3 1 359
120 95 52 194 253 68 47 105 106 140 113 88 117 84 85 60 102 144 130 132 135 149 161 163 162 166 249 309 308 327 338 348 351 351 348 348 349 347 345 344 346 349 358 5 15 7 12 14 7
91 105 63 21 174 174 111 67 116 164 115 124 124 104 89 78 107 118 130 127 160 155 161 167 175 202 266 297 319 325 340 347 351 349 348 347 350 349 348 348 350 359 6 14 24 29 23 14 8
112 173 155 174 172 139 92 24 301 193 120 101 105 106 80 123 122 123 128 126 159 161 163 181 202 236 276 299 318 327 341 345 349 348 347 349 350 351 352 353 359 10 20 32 36 30 22 17 12
188 189 145 153 154 151 62 1 18 93 142 64 54 88 116 134 133 125 129 136 157 161 174 193 228 257 286 306 313 328 340 347 348 350 349 351 355 353 356 3 13 18 34 38 34 28 21 16 13
195 126 141 136 198 106 39 61 38 14 79 95 36 102 147 154 146 142 156 158 153 163 185 223 257 273 279 294 307 323 343 346 347 351 352 353 358 360 4 12 15 28 41 36 28 27 20 16 22
223 168 166 169 171 96 21 165 64 44 97 62 59 93 97 160 156 162 158 159 169 176 194 212 271 267 280 293 312 328 339 346 353 353 354 358 4 9 13 17 22 37 41 31 27 25 23 22 20
247 209 164 149 23 113 50 42 27 167 104 90 82 112 139 152 164 164 161 175 187 204 219 235 255 286 296 305 326 333 342 352 352 355 356 2 9 14 16 15 24 34 23 25 24 25 24 24 29
337 236 138 140 39 11 118 68 14 134 87 56 62 100 150 154 166 163 163 175 203 221 238 229 246 281 295 305 330 337 348 353 352 356 1 6 11 17 17 15 10 21 5 17 20 22 23 24 26
81 99 143 137 32 131 89 97 71 51 66 53 89 121 135 158 174 187 192 196 198 214 236 232 226 236 286 330 348 348 347 351 356 359 6 11 13 13 13 14 15 18 14 13 18 16 18 20 18
131 112 154 120 84 103 117 93 102 66 57 81 93 98 114 163 184 203 213 217 206 216 228 216 229 242 282 343 352 353 351 355 1 7 10 17 13 14 12 22 29 30 21 16 12 16 18 19 22
131 133 127 151 152 139 102 99 133 88 67 94 113 98 87 147 185 207 223 228 230 212 212 214 216 236 263 336 351 353 356 360 8 12 18 17 16 27 33 29 28 25 20 14 11 14 21 20 17
50 136 131 99 147 138 126 142 157 149 132 152 135 102 81 155 191 193 194 189 214 211 213 221 213 231 260 324 341 354 2 10 18 25 24 15 29 38 39 30 28 19 14 16 16 12 21 24 22
84 42 179 175 195 195 189 233 156 169 158 179 173 132 73 42 136 179 193 198 197 192 204 209 208 225 245 298 337 356 4 16 30 37 26 28 41 48 46 31 28 31 26 22 27 22 24 20 25
207 181 201 198 208 159 190 236 158 183 174 193 199 175 149 101 81 143 166 174 173 186 197 197 203 228 246 283 326 351 12 43 56 35 40 49 54 45 43 36 30 27 27 31 32 29 28 23 26
187 195 206 213 193 223 217 239 172 199 202 205 204 197 176 168 160 176 176 171 173 183 195 197 211 230 241 262 337 20 53 75 2 59 59 59 58 56 56 50 44 38 35 37 40 37 32 27 40
302 212 194 225 230 245 232 240 220 199 213 208 208 202 204 174 174 172 184 179 179 193 200 211 216 225 224 197 130 138 142 138 79 70 77 68 51 47 45 45 36 35 32 31 32 41 28 25 36
214 212 233 193 135 209 258 250 247 201 223 218 211 205 205 189 182 187 188 182 189 195 202 210 217 218 215 197 177 190 207 143 96 91 79 61 53 35 31 32 28 31 36 33 33 40 42 39 33
224 240 238 253 181 241 307 262 242 226 226 223 221 212 207 202 192 189 194 202 201 201 200 202 205 208 199 188 181 181 186 139 134 113 85 66 34 28 32 34 34 32 31 32 34 41 43 50 55
232 208 257 239 204 244 180 285 225 216 219 217 214 209 209 204 200 199 192 209 216 211 209 206 206 203 196 182 163 172 172 203 177 147 126 66 40 42 52 52 46 43 46 43 40 43 43 45 51
243 107 202 204 221 281 215 262 256 216 213 217 215 209 208 207 197 205 194 208 222 218 212 206 202 202 201 200 199 195 193 186 176 176 150 86 53 64 60 57 46 51 49 48 45 40 41 44 45
125 172 182 255 256 256 235 217 248 196 224 227 212 212 206 201 195 198 205 210 219 216 206 200 199 198 203 200 190 187 185 185 189 190 174 159 111 94 77 74 69 65 60 57 55 53 54 55 56
205 186 229 221 206 248 22 219 253 237 218 232 215 205 202 197 193 190 200 202 209 210 202 198 198 195 197 188 187 191 192 185 189 188 181 159 135 107 95 91 90 85 79 73 70 69 66 62 59
205 205 204 237 236 307 101 247 255 298 354 169 272 195 190 192 195 190 190 195 205 207 202 198 198 195 194 193 194 196 194 190 187 181 164 147 131 119 106 97 91 84 80 77 73 71 68 63 59
197 220 232 283 275 274 247 247 263 201 219 218 185 175 183 190 193 190 187 199 203 204 200 199 200 196 196 196 195 198 191 180 166 155 149 141 131 120 110 102 94 86 80 76 74 73 67 58 52
261 212 210 225 244 246 253 263 260 236 223 198 187 188 187 188 190 190 194 200 204 207 206 203 199 198 195 197 191 180 169 162 159 153 147 140 132 123 115 107 95 89 86 80 71 64 60 49 48
196 221 218 229 230 254 289 263 34 9 326 202 200 197 194 191 191 191 196 202 206 206 202 201 198 196 190 180 175 170 169 165 159 155 150 144 137 131 122 112 105 98 87 76 65 57 54 50 53
242 220 215 220 214 233 259 265 208 133 122 195 203 200 196 195 193 196 199 202 203 201 202 199 196 191 182 176 173 173 172 165 163 160 155 151 147 142 136 130 118 101 87 72 63 58 57 59 60